User: anonymous   Login
Location: Ab? ar R?sh Ba?r?
(24.1861°N, 32.8847°E)
Time: 03:07:09
(UTC+00:00)
Language:

Cosmos 724 - Orbit

View from above orbital plane
View from above orbital plane
View from above satellite
View from above satellite

Ground track
Ground track

The orbit data is extracted from the following two-line orbital elements,

1 07727U 75025A   22019.43568034 -.00000044  00000-0  30161-4 0  9993
2 07727  65.5898 278.6106 0050852 152.5112 207.8668 13.98936925390502
Epoch (UTC): 19 January 2022 10:27:22
Eccentricity: 0.0050852
inclination: 65.5898°
perigee height: 860 km
apogee height: 934 km
right ascension of ascending node: 278.6106°
argument of perigee: 152.5112°
revolutions per day: 13.98936925
mean anomaly at epoch: 207.8668°
orbit number at epoch: 39050

The dashed part of the orbit path shows where the satellite is in the earth's shadow,  

DLR